Torna al catalogo

STARLINK-5410

AttivoComunicazioniVLEO
NORAD 54807·PAYLOAD·🇺🇸 United States

Lanciato Dec 17, 2022 da Cape Canaveral Space Force Station

Loading…

Prossimi Passaggi (prossime 24 ore)

TLE

AggiornatoSource: CelesTrak SupGP

Epoca: Sep 14, 2026, 21:41 UTC

1 54807C 22175BB  26257.90395833  .00015007  00000+0  44344-3 0  2574
2 54807  53.1582 245.6549 0001355  91.7987 343.9551 15.34379465    18

Traccia STARLINK-5410 in tempo reale con AllMySat

Download on the App Store